Regional Weather Roundup
Issued by NWS Charleston, WV

Home | Current Version | Previous Version | Text Only | Print | Product List | Glossary On
Versions: 1 2 3 4 5 6 7 8 9 10 11 12 13 14 15 16 17 18 19 20 21 22 23 24 25 26 27 28 29 30 31 32 33 34 35 36 37 38 39 40 41 42 43 44 45 46 47 48 49 50
000
ASUS41 KRLX 010910
RWRRLX
West Virginia Regional Weather Roundup
National Weather Service Charleston WV
500 AM EDT FRI AUG 01 2014

Note: "fair" indicates few or no clouds below 12,000 feet with no
significant weather and/or obstructions to visibility.

WVZ003-011000-
Northern Panhandle of West Virginia

CITY           SKY/WX    TMP DP  RH WIND       PRES   REMARKS
WHEELING       PTCLDY    61  59  93 CALM      30.13R FOG
$$

WVZ009-011000-
Northwest West Virginia

CITY           SKY/WX    TMP DP  RH WIND       PRES   REMARKS
PARKERSBURG    FOG       59  58  96 CALM      30.13S VSB 1/4
$$

WVZ006-011000-
Western West Virginia

CITY           SKY/WX    TMP DP  RH WIND       PRES   REMARKS
HUNTINGTON     MOCLDY    61  60  97 CALM      30.08S FOG
$$

WVZ015-011000-
West Central West Virginia

CITY           SKY/WX    TMP DP  RH WIND       PRES   REMARKS
CHARLESTON     FOG       62  62 100 CALM      30.09F VSB 1/2
$$

WVZ031-011000-
North Central West Virginia

CITY           SKY/WX    TMP DP  RH WIND       PRES   REMARKS
CLARKSBURG     PTCLDY    58  56  93 CALM      30.13F FOG
MORGANTOWN     CLEAR     61  57  87 SW3       30.15S FOG
$$

WVZ035-042-045-011000-
South Central West Virginia

CITY           SKY/WX    TMP DP  RH WIND       PRES   REMARKS
BECKLEY        MOCLDY    63  56  78 SE9       30.17F
BLUEFIELD      CLOUDY    65  57  75 E7        30.19F
LEWISBURG      FOG       62  60  93 CALM      30.19S VSB 1/2
$$

WVZ047-011000-
Northern Mountains of West Virginia

CITY           SKY/WX    TMP DP  RH WIND       PRES   REMARKS
ELKINS         FOG       55  53  93 W3        30.19S VSB 3/4
$$

WVZ052-011000-
Eastern Panhandle of West Virginia

CITY           SKY/WX    TMP DP  RH WIND       PRES   REMARKS
MARTINSBURG    MOCLDY    63  59  87 CALM      30.14S FOG
PETERSBURG     CLOUDY    59  56  88 CALM      30.16S FOG
$$



USA.gov is the U.S. government's official web portal to all federal, state and local government web resources and services.